Location: Hylvaty SDH
(49.9612°N, 16.4057°E)
Time: 08:36:13
(UTC+01:00)

Transit 2A - Visible Passes

Search period start: 26 October 2020 00:00
Search period end: 05 November 2020 00:00
Orbit: 593 x 966 km, 66.7° (Epoch: 25 October)

Date Brightness Start Highest point End Pass type
(mag) Time Alt. Az. Time Alt. Az. Time Alt. Az.
26 Oct 8.2 02:13:17 26° NE 02:13:17 26° NE 02:15:49 10° NE visible
26 Oct 7.5 03:53:46 28° NNW 03:53:46 28° NNW 03:58:53 10° NNE visible
26 Oct 8.2 05:35:10 10° NW 05:38:57 16° N 05:42:35 10° NNE visible
27 Oct 8.7 01:40:13 18° NE 01:40:13 18° NE 01:41:37 10° NE visible
27 Oct 7.7 03:20:42 30° N 03:20:42 30° N 03:24:46 10° NNE visible
27 Oct 8.2 05:01:12 12° NW 05:04:19 17° NNW 05:08:10 10° NNE visible
28 Oct 9.2 01:07:07 11° NE 01:07:07 11° NE 01:07:22 10° NE visible
28 Oct 8.0 02:47:37 27° N 02:47:37 27° N 02:50:37 10° NNE visible
28 Oct 8.0 04:28:06 17° NW 04:29:43 19° NNW 04:33:51 10° NNE visible
29 Oct 8.4 02:14:30 21° NNE 02:14:30 21° NNE 02:16:30 10° NNE visible
29 Oct 8.0 03:55:00 21° NNW 03:55:08 21° NNW 03:59:36 10° NNE visible
29 Oct 8.3 05:37:06 10° NNW 05:40:42 16° N 05:44:09 10° NE visible
30 Oct 8.9 01:41:23 15° NNE 01:41:23 15° NNE 01:42:21 10° NNE visible
30 Oct 8.0 03:21:52 22° N 03:21:52 22° N 03:25:23 10° NNE visible
30 Oct 8.3 05:02:29 10° NW 05:06:03 16° N 05:09:30 10° NE visible
31 Oct 8.3 02:48:44 21° N 02:48:44 21° N 02:51:14 10° NNE visible
31 Oct 8.3 04:29:13 13° NNW 04:31:25 16° N 04:34:57 10° NNE visible
01 Nov 8.7 02:15:35 17° NNE 02:15:35 17° NNE 02:17:06 10° NNE visible
01 Nov 8.2 03:56:05 16° NNW 03:56:48 17° N 04:00:31 10° NNE visible
01 Nov 8.2 05:38:26 10° NNW 05:42:25 18° NNE 05:46:10 10° ENE visible
02 Nov 9.0 01:42:26 12° NNE 01:42:26 12° NNE 01:42:58 10° NNE visible
02 Nov 8.3 03:22:55 18° N 03:22:55 18° N 03:26:11 10° NNE visible
02 Nov 8.3 05:04:05 10° NNW 05:07:48 16° N 05:11:20 10° NE visible
03 Nov 8.5 02:49:46 17° N 02:49:46 17° N 02:51:56 10° NNE visible
03 Nov 8.4 04:30:16 12° NNW 04:33:10 16° N 04:36:33 10° NE visible
04 Nov 8.8 02:16:37 14° NNE 02:16:37 14° NNE 02:17:44 10° NNE visible
04 Nov 8.3 03:57:07 14° NNW 03:58:32 15° N 04:01:53 10° NE visible
04 Nov 8.0 05:39:22 10° NNW 05:43:58 23° NNE 05:48:14 10° ENE visible
